Regional Weather Roundup
Issued by NWS

Home | Current Version | Previous Version | Text Only | Print | Product List | Glossary On
Versions: 1 2 3 4 5 6 7 8 9 10 11 12 13 14 15 16 17 18 19 20 21 22 23 24 25 26 27 28 29 30 31 32 33 34 35 36 37 38 39 40 41 42 43 44 45 46 47 48
000
ASUS45 KPSR 041510
RWRAZ

ARIZONA REGIONAL HOURLY WEATHER ROUNDUP
NATIONAL WEATHER SERVICE TUCSON AZ
800 AM MST WED MAR 04 2015

NOTE: FAIR INDICATES FEW OR NO CLOUDS BELOW 12,000 FEET WITH NO
SIGNIFICANT WEATHER AND/OR OBSTRUCTIONS TO VISIBILITY.

AZZ001>003-036-041600-
NORTHWEST ARIZONA

CITY           SKY/WX    TMP DP  RH WIND       PRES   REMARKS
BULLHEAD CITY  SUNNY     48  27  43 N20       30.09R
KINGMAN        SUNNY     34  28  79 E9        30.05R WCI  27
$$

AZZ004>008-015-016-018-041600-
NORTH CENTRAL ARIZONA

CITY           SKY/WX    TMP DP  RH WIND       PRES   REMARKS
GRAND CANYON   SUNNY     16  16 100 CALM      30.00R
PRESCOTT       SUNNY     32  26  78 NW8       30.00R WCI  25
FLAGSTAFF      MOSUNNY   13  12  96 CALM      29.97
PAYSON         SUNNY     34  27  75 NE10      29.98R WCI  26
PAGE           SUNNY     34  17  50 CALM      30.05R
$$

AZZ009>014-017-041600-
NORTHEAST ARIZONA

CITY           SKY/WX    TMP DP  RH WIND       PRES   REMARKS
WINSLOW        MOSUNNY   33  29  85 NW9       30.01R WCI  25
SAINT JOHNS    MOSUNNY   32  28  85 CALM      29.96R
WINDOW ROCK    SUNNY     30  23  75 N7        29.96R WCI  23
SHOW LOW       CLOUDY    27  25  93 N5        30.00R WCI  21
$$

AZZ023-041600-
GREATER PHOENIX AREA

CITY           SKY/WX    TMP DP  RH WIND       PRES   REMARKS
PHOENIX        MOSUNNY   50  41  71 W5        29.94R
BUCKEYE        SUNNY     48  41  76 N8        29.97R
GLENDALE       MOSUNNY   52  39  62 W7        29.97R
LUKE AFB       SUNNY     47  41  78 N2        29.95R
DEER VALLEY    SUNNY     48  39  71 E9        29.94R
SCOTTSDALE     SUNNY     47  41  80 CALM      29.96R
MESA-GATEWAY   MOSUNNY   43  41  93 E5        29.97R
CHANDLER       MOSUNNY   46  45  93 N6        29.96R
$$

AZZ027-028-041600-
SOUTHWEST MARICOPA COUNTY AND PINAL COUNTY

CITY           SKY/WX    TMP DP  RH WIND       PRES   REMARKS
CASA GRANDE    SUNNY     46  39  76 W5        29.95R
$$

AZZ503-504-507>509-041600-
SOUTHEAST ARIZONA

CITY           SKY/WX    TMP DP  RH WIND       PRES   REMARKS
TUCSON         PTSUNNY   48  40  73 W3        29.97R
DAVIS-MONTHAN  PTSUNNY   46  40  80 SE3       29.95R
RYAN FIELD       N/A     48  43  81 SW5       29.97R
NOGALES        CLOUDY    43  35  73 CALM      29.95R
SIERRA VISTA   PTSUNNY   45  32  61 W7        29.93S
DOUGLAS        CLOUDY    43  36  76 N3        29.96R
SAFFORD        MOSUNNY   44  34  67 E3        29.93R
$$

AZZ020-021-025-026-031-041600-
SOUTHWEST ARIZONA

CITY           SKY/WX    TMP DP  RH WIND       PRES   REMARKS
YUMA           SUNNY     55  42  61 N12       30.00R
$$

CAZ031-033-041-043-047-048-061-041600-
SOUTHERN CALIFORNIA

CITY           SKY/WX    TMP DP  RH WIND       PRES   REMARKS
DOWNTOWN L.A.  CLEAR     50  40  68 CALM      30.02R
L.A. AIRPORT   PTCLDY    51  42  71 VRB5      30.03R
SAN DIEGO      PTCLDY    51  42  71 CALM      30.03R
BURBANK        CLEAR     46  39  76 CALM      30.02R
ONTARIO        CLEAR     54  31  41 NE8G21    30.01R
RIVERSIDE      CLEAR     51  36  56 E7        30.02R
PALM SPRINGS   CLEAR     59  25  27 N3        30.07R
EL CENTRO NAS  MOSUNNY   49  43  80 W5        30.02R
IMPERIAL       SUNNY     50  45  83 N5        30.02R
BLYTHE         SUNNY     52  36  54 N16       30.03R
$$

NVZ020-UTZ003-041600-
SOUTHERN NEVADA-UTAH

CITY           SKY/WX    TMP DP  RH WIND       PRES   REMARKS
LAS VEGAS      CLEAR     45  15  30 N15       30.08R
SALT LAKE CITY MOSUNNY   28  22  78 SE7       30.14R WCI  21
$$

NMZ009-TXZ055-041600-
NEW MEXICO-WEST TEXAS

CITY           SKY/WX    TMP DP  RH WIND       PRES   REMARKS
ALBUQUERQUE    MOSUNNY   37  28  70 N6        29.94R WCI  32
EL PASO        MOSUNNY   51  39  63 SW9       29.91R
$$


........................KEY........................
SKY/WX - SKY CONDITION/WEATHER
TMP    - TEMPERATURE IN FAHRENHEIT
DP     - DEWPOINT IN FAHRENHEIT
RH     - RELATIVE HUMIDITY IN PERCENT
WIND   - DIRECTION AND SPEED IN MILES PER HOUR (MPH)
VRB    - VARIABLE WIND DIRECTION
PRES   - MEAN SEA LEVEL PRESSURE IN INCHES OF MERCURY
         F - FALLING PRESSURE   R - RISING PRESSURE
         S - STEADY PRESSURE
VSB    - VISIBILITY IN MILES
HX     - HEAT INDEX IN FAHRENHEIT
WCI    - WIND CHILL INDEX IN FAHRENHEIT
TC     - TEMPERATURE IN CELSIUS WHICH IS ALSO KNOWN AS
         TEMPERATURE IN CENTIGRADE
AFB    - AIR FORCE BASE
         LUKE AFB IS LUKE AIR FORCE BASE
         DAVIS-MONTHAN IS DAVIS-MONTHAN AIR FORCE BASE
NAS    - NAVAL AIR STATION
         EL CENTRO NAS IS EL CENTRO NAVAL AIR STATION
N/A    - NOT AVAILABLE



USA.gov is the U.S. government's official web portal to all federal, state and local government web resources and services.